This demonstration page uses our WeatherBlox Daily Observations layout. Learn more.

Left ArrowRight Arrow

39.01783, -85.05884

Hourly Observations for May 30, 2021

Temp ( °F °C ) Dew Point ( °F °C ) Humidity (%) Winds ( mph kmh ) Pressure ( in mb ) Visibility ( mi km ) Precip ( " mm )
12:52 am 00:52 Clear 48 8.9 37 2.8 66 66 N 10 17 30.16 1021 10 16 0.00 0.00
1:52 am 01:52 Clear 47 8.3 34 1.1 61 61 N 8 13 30.16 1022 10 16 0.00 0.00
2:52 am 02:52 Clear 45 7.2 35 1.7 68 68 N 7 11 30.16 1022 10 16 0.00 0.00
3:52 am 03:52 Clear 45 7.2 34 1.1 66 66 N 7 11 30.16 1021 10 16 0.00 0.00
4:52 am 04:52 Clear 45 7.2 35 1.7 68 68 NNE 7 11 30.16 1022 10 16 0.00 0.00
5:52 am 05:52 Clear 44 6.7 35 1.7 71 71 NNW 8 13 30.17 1022 10 16 0.00 0.00
6:52 am 06:52 Sunny 44 6.7 36 2.2 73 73 NNW 7 11 30.19 1022 10 16 0.00 0.00
7:52 am 07:52 Sunny 47 8.3 37 2.8 69 69 N 8 13 30.20 1023 10 16 0.00 0.00
8:52 am 08:52 Sunny 51 10.6 40 4.4 66 66 N 7 11 30.21 1023 10 16 0.00 0.00
9:52 am 09:52 Partly Cloudy 56 13.3 42 5.6 60 60 N 8 13 30.22 1024 10 16 0.00 0.00
10:52 am 10:52 Partly Cloudy 57 13.9 42 5.6 58 58 N 8 13 30.24 1024 10 16 0.00 0.00
11:52 am 11:52 Cloudy 57 13.9 42 5.6 58 58 NNE 12 19 30.26 1025 10 16 0.00 0.00
12:52 pm 12:52 Cloudy 58 14.4 43 6.1 58 58 N 10 17 30.27 1025 10 16 0.00 0.00
1:52 pm 13:52 Cloudy 59 15 44 6.7 58 58 N 7 11 30.26 1025 10 16 0.00 0.00
2:52 pm 14:52 Cloudy 61 16.1 45 7.2 56 56 NE 7 11 30.25 1025 10 16 0.00 0.00
3:52 pm 15:52 Cloudy 61 16.1 45 7.2 56 56 NE 6 9 30.25 1024 10 16 0.00 0.00
4:52 pm 16:52 Cloudy 62 16.7 45 7.2 54 54 N 7 11 30.23 1024 10 16 0.00 0.00
5:52 pm 17:52 Cloudy 61 16.1 43 6.1 52 52 NNE 8 13 30.24 1024 10 16 0.00 0.00
6:52 pm 18:52 Mostly Cloudy 61 16.1 44 6.7 54 54 NE 9 15 30.24 1024 10 16 0.00 0.00
7:52 pm 19:52 Partly Cloudy 60 15.6 46 7.8 60 60 Calm 30.25 1024 10 16 0.00 0.00
8:52 pm 20:52 Mostly Sunny 57 13.9 44 6.7 62 62 WSW 6 9 30.27 1025 10 16 0.00 0.00
9:52 pm 21:52 Mostly Clear 53 11.7 44 6.7 72 72 VRB 3 6 30.28 1026 10 16 0.00 0.00
10:52 pm 22:52 Mostly Clear 50 10 46 7.8 86 86 SSW 5 7 30.28 1026 10 16 0.00 0.00
11:52 pm 23:52 Clear 50 10 45 7.2 83 83 SSW 3 6 30.29 1026 10 16 0.00 0.00

Powered by AerisWeather